Data supplied by UK-AIR on 5/4/2008
All Data GMT hour ending 
Status: R =Ratified P=Provisional,P*=As supplied
,,Bury Roadside,,,,,,,,,,,,,,,,,,,,,,,
Date,time,"Carbon monoxide",status,unit,"PM10 particulate matter (Hourly measured)",status,unit,"Nitric oxide",status,unit,"Nitrogen dioxide",status,unit,"Nitrogen oxides as nitrogen dioxide",status,unit,"Ozone",status,unit,"Sulphur dioxide",status,unit
 
01-01-2004,01:00,0.1,R,mgm-3,5,R,ugm-3 (GRAV EQ),8,R,ugm-3,21,R,ugm-3,32,R,ugm-3,38,R,ugm-3,16,R,ugm-3
01-01-2004,02:00,0.1,R,mgm-3,3,R,ugm-3 (GRAV EQ),4,R,ugm-3,27,R,ugm-3,32,R,ugm-3,50,R,ugm-3,19,R,ugm-3
01-01-2004,03:00,0.1,R,mgm-3,0,R,ugm-3 (GRAV EQ),6,R,ugm-3,21,R,ugm-3,31,R,ugm-3,50,R,ugm-3,19,R,ugm-3
01-01-2004,04:00,0.1,R,mgm-3,0,R,ugm-3 (GRAV EQ),9,R,ugm-3,23,R,ugm-3,36,R,ugm-3,46,R,ugm-3,16,R,ugm-3
01-01-2004,05:00,0.1,R,mgm-3,1,R,ugm-3 (GRAV EQ),8,R,ugm-3,25,R,ugm-3,36,R,ugm-3,40,R,ugm-3,16,R,ugm-3
01-01-2004,06:00,0.1,R,mgm-3,5,R,ugm-3 (GRAV EQ),14,R,ugm-3,32,R,ugm-3,53,R,ugm-3,32,R,ugm-3,11,R,ugm-3
01-01-2004,07:00,0.1,R,mgm-3,9,R,ugm-3 (GRAV EQ),16,R,ugm-3,44,R,ugm-3,69,R,ugm-3,22,R,ugm-3,11,R,ugm-3
01-01-2004,08:00,0.1,R,mgm-3,14,R,ugm-3 (GRAV EQ),30,R,ugm-3,57,R,ugm-3,103,R,ugm-3,12,R,ugm-3,16,R,ugm-3
01-01-2004,09:00,0.1,R,mgm-3,18,R,ugm-3 (GRAV EQ),38,R,ugm-3,61,R,ugm-3,118,R,ugm-3,6,R,ugm-3,21,R,ugm-3
01-01-2004,10:00,0.1,R,mgm-3,17,R,ugm-3 (GRAV EQ),20,R,ugm-3,44,R,ugm-3,74,R,ugm-3,32,R,ugm-3,19,R,ugm-3
01-01-2004,11:00,0.1,R,mgm-3,22,R,ugm-3 (GRAV EQ),8,R,ugm-3,23,R,ugm-3,34,R,ugm-3,54,R,ugm-3,19,R,ugm-3
01-01-2004,12:00,0.1,R,mgm-3,26,R,ugm-3 (GRAV EQ),8,R,ugm-3,23,R,ugm-3,34,R,ugm-3,52,R,ugm-3,16,R,ugm-3
01-01-2004,13:00,0.1,R,mgm-3,25,R,ugm-3 (GRAV EQ),9,R,ugm-3,23,R,ugm-3,36,R,ugm-3,48,R,ugm-3,16,R,ugm-3
01-01-2004,14:00,0.1,R,mgm-3,27,R,ugm-3 (GRAV EQ),8,R,ugm-3,21,R,ugm-3,32,R,ugm-3,48,R,ugm-3,19,R,ugm-3
01-01-2004,15:00,0.1,R,mgm-3,27,R,ugm-3 (GRAV EQ),10,R,ugm-3,27,R,ugm-3,42,R,ugm-3,46,R,ugm-3,13,R,ugm-3
01-01-2004,16:00,0.1,R,mgm-3,30,R,ugm-3 (GRAV EQ),13,R,ugm-3,32,R,ugm-3,52,R,ugm-3,42,R,ugm-3,16,R,ugm-3
01-01-2004,17:00,0.1,R,mgm-3,29,R,ugm-3 (GRAV EQ),9,R,ugm-3,31,R,ugm-3,44,R,ugm-3,42,R,ugm-3,13,R,ugm-3
01-01-2004,18:00,0.1,R,mgm-3,23,R,ugm-3 (GRAV EQ),10,R,ugm-3,32,R,ugm-3,48,R,ugm-3,38,R,ugm-3,11,R,ugm-3
01-01-2004,19:00,0.1,R,mgm-3,26,R,ugm-3 (GRAV EQ),13,R,ugm-3,34,R,ugm-3,53,R,ugm-3,34,R,ugm-3,16,R,ugm-3
01-01-2004,20:00,0.2,R,mgm-3,25,R,ugm-3 (GRAV EQ),19,R,ugm-3,46,R,ugm-3,74,R,ugm-3,22,R,ugm-3,24,R,ugm-3
01-01-2004,21:00,0.2,R,mgm-3,18,R,ugm-3 (GRAV EQ),16,R,ugm-3,48,R,ugm-3,73,R,ugm-3,22,R,ugm-3,19,R,ugm-3
01-01-2004,22:00,0.2,R,mgm-3,14,R,ugm-3 (GRAV EQ),14,R,ugm-3,36,R,ugm-3,57,R,ugm-3,26,R,ugm-3,19,R,ugm-3
01-01-2004,23:00,0.2,R,mgm-3,16,R,ugm-3 (GRAV EQ),14,R,ugm-3,38,R,ugm-3,59,R,ugm-3,22,R,ugm-3,19,R,ugm-3
01-01-2004,24:00,0.1,R,mgm-3,14,R,ugm-3 (GRAV EQ),15,R,ugm-3,32,R,ugm-3,55,R,ugm-3,24,R,ugm-3,16,R,ugm-3
02-01-2004,01:00,0.1,R,mgm-3,9,R,ugm-3 (GRAV EQ),6,R,ugm-3,15,R,ugm-3,25,R,ugm-3,34,R,ugm-3,16,R,ugm-3
02-01-2004,02:00,0.1,R,mgm-3,9,R,ugm-3 (GRAV EQ),6,R,ugm-3,21,R,ugm-3,31,R,ugm-3,40,R,ugm-3,19,R,ugm-3
02-01-2004,03:00,0.1,R,mgm-3,8,R,ugm-3 (GRAV EQ),5,R,ugm-3,15,R,ugm-3,23,R,ugm-3,38,R,ugm-3,16,R,ugm-3
02-01-2004,04:00,0.1,R,mgm-3,4,R,ugm-3 (GRAV EQ),3,R,ugm-3,6,R,ugm-3,10,R,ugm-3,50,R,ugm-3,19,R,ugm-3
02-01-2004,05:00,0.1,R,mgm-3,8,R,ugm-3 (GRAV EQ),4,R,ugm-3,11,R,ugm-3,17,R,ugm-3,46,R,ugm-3,21,R,ugm-3
02-01-2004,06:00,0.1,R,mgm-3,8,R,ugm-3 (GRAV EQ),6,R,ugm-3,17,R,ugm-3,27,R,ugm-3,40,R,ugm-3,19,R,ugm-3
02-01-2004,07:00,0.1,R,mgm-3,10,R,ugm-3 (GRAV EQ),14,R,ugm-3,31,R,ugm-3,52,R,ugm-3,32,R,ugm-3,21,R,ugm-3
02-01-2004,08:00,0.2,R,mgm-3,14,R,ugm-3 (GRAV EQ),45,R,ugm-3,59,R,ugm-3,128,R,ugm-3,16,R,ugm-3,21,R,ugm-3
02-01-2004,09:00,0.2,R,mgm-3,16,R,ugm-3 (GRAV EQ),41,R,ugm-3,63,R,ugm-3,126,R,ugm-3,12,R,ugm-3,16,R,ugm-3
02-01-2004,10:00,0.2,R,mgm-3,17,R,ugm-3 (GRAV EQ),69,R,ugm-3,63,R,ugm-3,168,R,ugm-3,8,R,ugm-3,21,R,ugm-3
02-01-2004,11:00,0.2,R,mgm-3,25,R,ugm-3 (GRAV EQ),123,R,ugm-3,71,R,ugm-3,258,R,ugm-3,4,R,ugm-3,29,R,ugm-3
02-01-2004,12:00,0.2,R,mgm-3,27,R,ugm-3 (GRAV EQ),133,R,ugm-3,69,R,ugm-3,271,R,ugm-3,2,R,ugm-3,29,R,ugm-3
02-01-2004,13:00,0.2,R,mgm-3,26,R,ugm-3 (GRAV EQ),121,R,ugm-3,67,R,ugm-3,252,R,ugm-3,2,R,ugm-3,27,R,ugm-3
02-01-2004,14:00,0.3,R,mgm-3,29,R,ugm-3 (GRAV EQ),143,R,ugm-3,69,R,ugm-3,287,R,ugm-3,0,R,ugm-3,24,R,ugm-3
02-01-2004,15:00,0.5,R,mgm-3,38,R,ugm-3 (GRAV EQ),211,R,ugm-3,76,R,ugm-3,399,R,ugm-3,0,R,ugm-3,37,R,ugm-3
02-01-2004,16:00,0.6,R,mgm-3,39,R,ugm-3 (GRAV EQ),204,R,ugm-3,78,R,ugm-3,390,R,ugm-3,0,R,ugm-3,37,R,ugm-3
02-01-2004,17:00,0.6,R,mgm-3,43,R,ugm-3 (GRAV EQ),226,R,ugm-3,84,R,ugm-3,430,R,ugm-3,0,R,ugm-3,40,R,ugm-3
02-01-2004,18:00,0.9,R,mgm-3,47,R,ugm-3 (GRAV EQ),273,R,ugm-3,96,R,ugm-3,512,R,ugm-3,0,R,ugm-3,53,R,ugm-3
02-01-2004,19:00,0.7,R,mgm-3,43,R,ugm-3 (GRAV EQ),233,R,ugm-3,86,R,ugm-3,441,R,ugm-3,0,R,ugm-3,43,R,ugm-3
02-01-2004,20:00,0.5,R,mgm-3,42,R,ugm-3 (GRAV EQ),190,R,ugm-3,80,R,ugm-3,371,R,ugm-3,0,R,ugm-3,40,R,ugm-3
02-01-2004,21:00,0.3,R,mgm-3,36,R,ugm-3 (GRAV EQ),129,R,ugm-3,63,R,ugm-3,260,R,ugm-3,0,R,ugm-3,29,R,ugm-3
02-01-2004,22:00,0.2,R,mgm-3,34,R,ugm-3 (GRAV EQ),91,R,ugm-3,53,R,ugm-3,193,R,ugm-3,4,R,ugm-3,35,R,ugm-3
02-01-2004,23:00,0.2,R,mgm-3,33,R,ugm-3 (GRAV EQ),89,R,ugm-3,52,R,ugm-3,187,R,ugm-3,2,R,ugm-3,29,R,ugm-3
02-01-2004,24:00,0.1,R,mgm-3,30,R,ugm-3 (GRAV EQ),61,R,ugm-3,46,R,ugm-3,139,R,ugm-3,4,R,ugm-3,24,R,ugm-3
03-01-2004,01:00,0.1,R,mgm-3,25,R,ugm-3 (GRAV EQ),58,R,ugm-3,44,R,ugm-3,132,R,ugm-3,4,R,ugm-3,27,R,ugm-3
03-01-2004,02:00,0.2,R,mgm-3,23,R,ugm-3 (GRAV EQ),40,R,ugm-3,48,R,ugm-3,109,R,ugm-3,10,R,ugm-3,29,R,ugm-3
03-01-2004,03:00,0.2,R,mgm-3,18,R,ugm-3 (GRAV EQ),28,R,ugm-3,38,R,ugm-3,80,R,ugm-3,10,R,ugm-3,27,R,ugm-3
03-01-2004,04:00,0.2,R,mgm-3,21,R,ugm-3 (GRAV EQ),35,R,ugm-3,40,R,ugm-3,94,R,ugm-3,12,R,ugm-3,24,R,ugm-3
03-01-2004,05:00,0.2,R,mgm-3,22,R,ugm-3 (GRAV EQ),41,R,ugm-3,40,R,ugm-3,103,R,ugm-3,12,R,ugm-3,19,R,ugm-3
03-01-2004,06:00,0.2,R,mgm-3,25,R,ugm-3 (GRAV EQ),53,R,ugm-3,44,R,ugm-3,124,R,ugm-3,8,R,ugm-3,27,R,ugm-3
03-01-2004,07:00,0.1,R,mgm-3,25,R,ugm-3 (GRAV EQ),79,R,ugm-3,52,R,ugm-3,172,R,ugm-3,6,R,ugm-3,19,R,ugm-3
03-01-2004,08:00,0.1,R,mgm-3,27,R,ugm-3 (GRAV EQ),111,R,ugm-3,57,R,ugm-3,227,R,ugm-3,2,R,ugm-3,27,R,ugm-3
03-01-2004,09:00,0.2,R,mgm-3,30,R,ugm-3 (GRAV EQ),118,R,ugm-3,61,R,ugm-3,241,R,ugm-3,0,R,ugm-3,27,R,ugm-3
03-01-2004,10:00,0.2,R,mgm-3,31,R,ugm-3 (GRAV EQ),134,R,ugm-3,63,R,ugm-3,267,R,ugm-3,0,R,ugm-3,29,R,ugm-3
03-01-2004,11:00,0.2,R,mgm-3,27,R,ugm-3 (GRAV EQ),105,R,ugm-3,61,R,ugm-3,222,R,ugm-3,2,R,ugm-3,27,R,ugm-3
03-01-2004,12:00,0.2,R,mgm-3,22,R,ugm-3 (GRAV EQ),91,R,ugm-3,59,R,ugm-3,199,R,ugm-3,4,R,ugm-3,21,R,ugm-3
03-01-2004,13:00,0.3,R,mgm-3,26,R,ugm-3 (GRAV EQ),120,R,ugm-3,63,R,ugm-3,246,R,ugm-3,2,R,ugm-3,29,R,ugm-3
03-01-2004,14:00,0.5,R,mgm-3,30,R,ugm-3 (GRAV EQ),131,R,ugm-3,65,R,ugm-3,265,R,ugm-3,0,R,ugm-3,29,R,ugm-3
03-01-2004,15:00,0.5,R,mgm-3,29,R,ugm-3 (GRAV EQ),121,R,ugm-3,59,R,ugm-3,244,R,ugm-3,0,R,ugm-3,27,R,ugm-3
03-01-2004,16:00,0.3,R,mgm-3,29,R,ugm-3 (GRAV EQ),120,R,ugm-3,59,R,ugm-3,243,R,ugm-3,0,R,ugm-3,27,R,ugm-3
03-01-2004,17:00,0.5,R,mgm-3,34,R,ugm-3 (GRAV EQ),124,R,ugm-3,59,R,ugm-3,248,R,ugm-3,0,R,ugm-3,24,R,ugm-3
03-01-2004,18:00,0.5,R,mgm-3,38,R,ugm-3 (GRAV EQ),124,R,ugm-3,57,R,ugm-3,246,R,ugm-3,0,R,ugm-3,24,R,ugm-3
03-01-2004,19:00,0.7,R,mgm-3,43,R,ugm-3 (GRAV EQ),161,R,ugm-3,65,R,ugm-3,311,R,ugm-3,0,R,ugm-3,32,R,ugm-3
03-01-2004,20:00,0.8,R,mgm-3,44,R,ugm-3 (GRAV EQ),166,R,ugm-3,65,R,ugm-3,319,R,ugm-3,0,R,ugm-3,27,R,ugm-3
03-01-2004,21:00,1.2,R,mgm-3,57,R,ugm-3 (GRAV EQ),188,R,ugm-3,76,R,ugm-3,363,R,ugm-3,0,R,ugm-3,32,R,ugm-3
03-01-2004,22:00,1.2,R,mgm-3,53,R,ugm-3 (GRAV EQ),180,R,ugm-3,73,R,ugm-3,348,R,ugm-3,0,R,ugm-3,32,R,ugm-3
03-01-2004,23:00,0.8,R,mgm-3,47,R,ugm-3 (GRAV EQ),165,R,ugm-3,76,R,ugm-3,329,R,ugm-3,0,R,ugm-3,35,R,ugm-3
03-01-2004,24:00,0.2,R,mgm-3,30,R,ugm-3 (GRAV EQ),40,R,ugm-3,42,R,ugm-3,103,R,ugm-3,20,R,ugm-3,24,R,ugm-3
04-01-2004,01:00,0.1,R,mgm-3,26,R,ugm-3 (GRAV EQ),13,R,ugm-3,32,R,ugm-3,52,R,ugm-3,34,R,ugm-3,21,R,ugm-3
04-01-2004,02:00,0.1,R,mgm-3,30,R,ugm-3 (GRAV EQ),13,R,ugm-3,53,R,ugm-3,73,R,ugm-3,20,R,ugm-3,16,R,ugm-3
04-01-2004,03:00,0.1,R,mgm-3,29,R,ugm-3 (GRAV EQ),8,R,ugm-3,44,R,ugm-3,55,R,ugm-3,24,R,ugm-3,16,R,ugm-3
04-01-2004,04:00,0.1,R,mgm-3,26,R,ugm-3 (GRAV EQ),5,R,ugm-3,32,R,ugm-3,40,R,ugm-3,32,R,ugm-3,16,R,ugm-3
04-01-2004,05:00,0.1,R,mgm-3,29,R,ugm-3 (GRAV EQ),4,R,ugm-3,34,R,ugm-3,40,R,ugm-3,26,R,ugm-3,16,R,ugm-3
04-01-2004,06:00,0.1,R,mgm-3,29,R,ugm-3 (GRAV EQ),81,R,ugm-3,65,R,ugm-3,189,R,ugm-3,4,R,ugm-3,24,R,ugm-3
04-01-2004,07:00,0.2,R,mgm-3,31,R,ugm-3 (GRAV EQ),121,R,ugm-3,78,R,ugm-3,264,R,ugm-3,2,R,ugm-3,24,R,ugm-3
04-01-2004,08:00,0.1,R,mgm-3,20,R,ugm-3 (GRAV EQ),20,R,ugm-3,50,R,ugm-3,80,R,ugm-3,18,R,ugm-3,19,R,ugm-3
04-01-2004,09:00,0.1,R,mgm-3,22,R,ugm-3 (GRAV EQ),31,R,ugm-3,63,R,ugm-3,111,R,ugm-3,10,R,ugm-3,19,R,ugm-3
04-01-2004,10:00,0.5,R,mgm-3,34,R,ugm-3 (GRAV EQ),171,R,ugm-3,88,R,ugm-3,350,R,ugm-3,2,R,ugm-3,29,R,ugm-3
04-01-2004,11:00,0.5,R,mgm-3,38,R,ugm-3 (GRAV EQ),128,R,ugm-3,82,R,ugm-3,277,R,ugm-3,2,R,ugm-3,24,R,ugm-3
04-01-2004,12:00,0.5,R,mgm-3,43,R,ugm-3 (GRAV EQ),158,R,ugm-3,84,R,ugm-3,325,R,ugm-3,2,R,ugm-3,21,R,ugm-3
04-01-2004,13:00,0.5,R,mgm-3,33,R,ugm-3 (GRAV EQ),105,R,ugm-3,78,R,ugm-3,239,R,ugm-3,6,R,ugm-3,24,R,ugm-3
04-01-2004,14:00,0.5,R,mgm-3,36,R,ugm-3 (GRAV EQ),126,R,ugm-3,90,R,ugm-3,283,R,ugm-3,2,R,ugm-3,24,R,ugm-3
04-01-2004,15:00,0.6,R,mgm-3,35,R,ugm-3 (GRAV EQ),113,R,ugm-3,88,R,ugm-3,260,R,ugm-3,4,R,ugm-3,24,R,ugm-3
04-01-2004,16:00,0.5,R,mgm-3,33,R,ugm-3 (GRAV EQ),106,R,ugm-3,92,R,ugm-3,254,R,ugm-3,4,R,ugm-3,24,R,ugm-3
04-01-2004,17:00,0.5,R,mgm-3,38,R,ugm-3 (GRAV EQ),121,R,ugm-3,96,R,ugm-3,281,R,ugm-3,2,R,ugm-3,27,R,ugm-3
04-01-2004,18:00,0.6,R,mgm-3,42,R,ugm-3 (GRAV EQ),134,R,ugm-3,101,R,ugm-3,306,R,ugm-3,2,R,ugm-3,27,R,ugm-3
04-01-2004,19:00,0.5,R,mgm-3,43,R,ugm-3 (GRAV EQ),116,R,ugm-3,94,R,ugm-3,271,R,ugm-3,2,R,ugm-3,32,R,ugm-3
04-01-2004,20:00,0.5,R,mgm-3,42,R,ugm-3 (GRAV EQ),151,R,ugm-3,97,R,ugm-3,329,R,ugm-3,2,R,ugm-3,32,R,ugm-3
04-01-2004,21:00,0.5,R,mgm-3,39,R,ugm-3 (GRAV EQ),129,R,ugm-3,88,R,ugm-3,285,R,ugm-3,2,R,ugm-3,29,R,ugm-3
04-01-2004,22:00,0.5,R,mgm-3,36,R,ugm-3 (GRAV EQ),113,R,ugm-3,80,R,ugm-3,252,R,ugm-3,2,R,ugm-3,29,R,ugm-3
04-01-2004,23:00,0.2,R,mgm-3,33,R,ugm-3 (GRAV EQ),76,R,ugm-3,71,R,ugm-3,187,R,ugm-3,2,R,ugm-3,27,R,ugm-3
04-01-2004,24:00,0.2,R,mgm-3,26,R,ugm-3 (GRAV EQ),59,R,ugm-3,63,R,ugm-3,153,R,ugm-3,8,R,ugm-3,19,R,ugm-3
05-01-2004,01:00,0.1,R,mgm-3,18,R,ugm-3 (GRAV EQ),38,R,ugm-3,52,R,ugm-3,109,R,ugm-3,8,R,ugm-3,13,R,ugm-3
05-01-2004,02:00,0.2,R,mgm-3,14,R,ugm-3 (GRAV EQ),50,R,ugm-3,61,R,ugm-3,138,R,ugm-3,6,R,ugm-3,16,R,ugm-3
05-01-2004,03:00,0.2,R,mgm-3,16,R,ugm-3 (GRAV EQ),71,R,ugm-3,57,R,ugm-3,166,R,ugm-3,4,R,ugm-3,13,R,ugm-3
05-01-2004,04:00,0.2,R,mgm-3,16,R,ugm-3 (GRAV EQ),98,R,ugm-3,63,R,ugm-3,212,R,ugm-3,0,R,ugm-3,16,R,ugm-3
05-01-2004,05:00,0.2,R,mgm-3,18,R,ugm-3 (GRAV EQ),154,R,ugm-3,67,R,ugm-3,302,R,ugm-3,0,R,ugm-3,19,R,ugm-3
05-01-2004,06:00,0.3,R,mgm-3,22,R,ugm-3 (GRAV EQ),236,R,ugm-3,80,R,ugm-3,441,R,ugm-3,0,R,ugm-3,27,R,ugm-3
05-01-2004,07:00,0.6,R,mgm-3,43,R,ugm-3 (GRAV EQ),349,R,ugm-3,107,R,ugm-3,640,R,ugm-3,0,R,ugm-3,29,R,ugm-3
05-01-2004,08:00,0.8,R,mgm-3,46,R,ugm-3 (GRAV EQ),356,R,ugm-3,117,R,ugm-3,661,R,ugm-3,0,R,ugm-3,35,R,ugm-3
05-01-2004,09:00,1.4,R,mgm-3,55,R,ugm-3 (GRAV EQ),414,R,ugm-3,126,R,ugm-3,758,R,ugm-3,0,R,ugm-3,43,R,ugm-3
05-01-2004,10:00,0.9,R,mgm-3,46,R,ugm-3 (GRAV EQ),436,R,ugm-3,126,R,ugm-3,793,R,ugm-3,0,R,ugm-3,40,R,ugm-3
05-01-2004,11:00,0.7,R,mgm-3,44,R,ugm-3 (GRAV EQ),396,R,ugm-3,120,R,ugm-3,726,R,ugm-3,0,R,ugm-3,37,R,ugm-3
05-01-2004,12:00,0.5,R,mgm-3,48,R,ugm-3 (GRAV EQ),344,R,ugm-3,109,R,ugm-3,634,R,ugm-3,0,R,ugm-3,35,R,ugm-3
05-01-2004,13:00,0.5,R,mgm-3,38,R,ugm-3 (GRAV EQ),284,R,ugm-3,97,R,ugm-3,531,R,ugm-3,0,R,ugm-3,35,R,ugm-3
05-01-2004,14:00,0.5,R,mgm-3,39,R,ugm-3 (GRAV EQ),286,R,ugm-3,96,R,ugm-3,533,R,ugm-3,0,R,ugm-3,37,R,ugm-3
05-01-2004,15:00,0.5,R,mgm-3,46,R,ugm-3 (GRAV EQ),284,R,ugm-3,96,R,ugm-3,529,R,ugm-3,0,R,ugm-3,32,R,ugm-3
05-01-2004,16:00,0.5,R,mgm-3,27,R,ugm-3 (GRAV EQ),266,R,ugm-3,99,R,ugm-3,506,R,ugm-3,0,R,ugm-3,37,R,ugm-3
05-01-2004,17:00,0.5,R,mgm-3,22,R,ugm-3 (GRAV EQ),190,R,ugm-3,84,R,ugm-3,374,R,ugm-3,0,R,ugm-3,32,R,ugm-3
05-01-2004,18:00,0.5,R,mgm-3,14,R,ugm-3 (GRAV EQ),135,R,ugm-3,80,R,ugm-3,287,R,ugm-3,2,R,ugm-3,24,R,ugm-3
05-01-2004,19:00,0.3,R,mgm-3,13,R,ugm-3 (GRAV EQ),106,R,ugm-3,71,R,ugm-3,233,R,ugm-3,4,R,ugm-3,24,R,ugm-3
05-01-2004,20:00,0.2,R,mgm-3,10,R,ugm-3 (GRAV EQ),83,R,ugm-3,67,R,ugm-3,193,R,ugm-3,6,R,ugm-3,16,R,ugm-3
05-01-2004,21:00,0.2,R,mgm-3,12,R,ugm-3 (GRAV EQ),51,R,ugm-3,55,R,ugm-3,134,R,ugm-3,12,R,ugm-3,19,R,ugm-3
05-01-2004,22:00,0.2,R,mgm-3,8,R,ugm-3 (GRAV EQ),41,R,ugm-3,50,R,ugm-3,113,R,ugm-3,14,R,ugm-3,16,R,ugm-3
05-01-2004,23:00,0.2,R,mgm-3,5,R,ugm-3 (GRAV EQ),34,R,ugm-3,46,R,ugm-3,97,R,ugm-3,14,R,ugm-3,13,R,ugm-3
05-01-2004,24:00,0.2,R,mgm-3,4,R,ugm-3 (GRAV EQ),33,R,ugm-3,40,R,ugm-3,90,R,ugm-3,16,R,ugm-3,19,R,ugm-3
06-01-2004,01:00,0.1,R,mgm-3,4,R,ugm-3 (GRAV EQ),20,R,ugm-3,34,R,ugm-3,65,R,ugm-3,22,R,ugm-3,19,R,ugm-3
06-01-2004,02:00,0.1,R,mgm-3,3,R,ugm-3 (GRAV EQ),11,R,ugm-3,32,R,ugm-3,50,R,ugm-3,28,R,ugm-3,11,R,ugm-3
06-01-2004,03:00,0.1,R,mgm-3,0,R,ugm-3 (GRAV EQ),8,R,ugm-3,25,R,ugm-3,36,R,ugm-3,36,R,ugm-3,16,R,ugm-3
06-01-2004,04:00,0.1,R,mgm-3,3,R,ugm-3 (GRAV EQ),11,R,ugm-3,29,R,ugm-3,46,R,ugm-3,34,R,ugm-3,13,R,ugm-3
06-01-2004,05:00,0.1,R,mgm-3,8,R,ugm-3 (GRAV EQ),23,R,ugm-3,44,R,ugm-3,78,R,ugm-3,26,R,ugm-3,11,R,ugm-3
06-01-2004,06:00,0.1,R,mgm-3,8,R,ugm-3 (GRAV EQ),48,R,ugm-3,59,R,ugm-3,132,R,ugm-3,22,R,ugm-3,13,R,ugm-3
06-01-2004,07:00,0.1,R,mgm-3,17,R,ugm-3 (GRAV EQ),103,R,ugm-3,82,R,ugm-3,239,R,ugm-3,8,R,ugm-3,19,R,ugm-3
06-01-2004,08:00,0.1,R,mgm-3,20,R,ugm-3 (GRAV EQ),68,R,ugm-3,74,R,ugm-3,178,R,ugm-3,16,R,ugm-3,16,R,ugm-3
06-01-2004,09:00,0.1,R,mgm-3,21,R,ugm-3 (GRAV EQ),90,R,ugm-3,80,R,ugm-3,218,R,ugm-3,18,R,ugm-3,24,R,ugm-3
06-01-2004,10:00,0.1,R,mgm-3,42,R,ugm-3 (GRAV EQ),221,R,ugm-3,117,R,ugm-3,455,R,ugm-3,2,R,ugm-3,32,R,ugm-3
06-01-2004,11:00,0.1,R,mgm-3,31,R,ugm-3 (GRAV EQ),123,R,ugm-3,88,R,ugm-3,275,R,ugm-3,10,R,ugm-3,29,R,ugm-3
06-01-2004,12:00,0.1,R,mgm-3,31,R,ugm-3 (GRAV EQ),135,R,ugm-3,97,R,ugm-3,304,R,ugm-3,10,R,ugm-3,32,R,ugm-3
06-01-2004,13:00,0.1,R,mgm-3,33,R,ugm-3 (GRAV EQ),124,R,ugm-3,94,R,ugm-3,283,R,ugm-3,12,R,ugm-3,24,R,ugm-3
06-01-2004,14:00,0.1,R,mgm-3,34,R,ugm-3 (GRAV EQ),91,R,ugm-3,88,R,ugm-3,227,R,ugm-3,22,R,ugm-3,24,R,ugm-3
06-01-2004,15:00,0.1,R,mgm-3,34,R,ugm-3 (GRAV EQ),93,R,ugm-3,92,R,ugm-3,233,R,ugm-3,18,R,ugm-3,24,R,ugm-3
06-01-2004,16:00,0.1,R,mgm-3,31,R,ugm-3 (GRAV EQ),69,R,ugm-3,84,R,ugm-3,189,R,ugm-3,22,R,ugm-3,16,R,ugm-3
06-01-2004,17:00,0.2,R,mgm-3,40,R,ugm-3 (GRAV EQ),139,R,ugm-3,105,R,ugm-3,317,R,ugm-3,6,R,ugm-3,27,R,ugm-3
06-01-2004,18:00,0.3,R,mgm-3,44,R,ugm-3 (GRAV EQ),198,R,ugm-3,124,R,ugm-3,426,R,ugm-3,0,R,ugm-3,35,R,ugm-3
06-01-2004,19:00,0.3,R,mgm-3,43,R,ugm-3 (GRAV EQ),216,R,ugm-3,120,R,ugm-3,451,R,ugm-3,0,R,ugm-3,48,R,ugm-3
06-01-2004,20:00,0.3,R,mgm-3,42,R,ugm-3 (GRAV EQ),230,R,ugm-3,115,R,ugm-3,466,R,ugm-3,0,R,ugm-3,51,R,ugm-3
06-01-2004,21:00,0.2,R,mgm-3,38,R,ugm-3 (GRAV EQ),171,R,ugm-3,101,R,ugm-3,363,R,ugm-3,0,R,ugm-3,35,R,ugm-3
06-01-2004,22:00,0.2,R,mgm-3,33,R,ugm-3 (GRAV EQ),140,R,ugm-3,94,R,ugm-3,308,R,ugm-3,4,R,ugm-3,29,R,ugm-3
06-01-2004,23:00,0.2,R,mgm-3,33,R,ugm-3 (GRAV EQ),135,R,ugm-3,90,R,ugm-3,296,R,ugm-3,2,R,ugm-3,29,R,ugm-3
06-01-2004,24:00,0.2,R,mgm-3,29,R,ugm-3 (GRAV EQ),120,R,ugm-3,84,R,ugm-3,267,R,ugm-3,2,R,ugm-3,27,R,ugm-3
07-01-2004,01:00,0.2,R,mgm-3,25,R,ugm-3 (GRAV EQ),118,R,ugm-3,80,R,ugm-3,260,R,ugm-3,2,R,ugm-3,29,R,ugm-3
07-01-2004,02:00,0.2,R,mgm-3,26,R,ugm-3 (GRAV EQ),128,R,ugm-3,84,R,ugm-3,279,R,ugm-3,4,R,ugm-3,29,R,ugm-3
07-01-2004,03:00,0.2,R,mgm-3,22,R,ugm-3 (GRAV EQ),93,R,ugm-3,71,R,ugm-3,212,R,ugm-3,4,R,ugm-3,24,R,ugm-3
07-01-2004,04:00,0.2,R,mgm-3,20,R,ugm-3 (GRAV EQ),105,R,ugm-3,71,R,ugm-3,231,R,ugm-3,2,R,ugm-3,24,R,ugm-3
07-01-2004,05:00,0.2,R,mgm-3,23,R,ugm-3 (GRAV EQ),190,R,ugm-3,80,R,ugm-3,371,R,ugm-3,4,R,ugm-3,32,R,ugm-3
07-01-2004,06:00,0.2,R,mgm-3,23,R,ugm-3 (GRAV EQ),188,R,ugm-3,80,R,ugm-3,367,R,ugm-3,6,R,ugm-3,32,R,ugm-3
07-01-2004,07:00,0.3,R,mgm-3,33,R,ugm-3 (GRAV EQ),326,R,ugm-3,101,R,ugm-3,600,R,ugm-3,4,R,ugm-3,40,R,ugm-3
07-01-2004,08:00,0.6,R,mgm-3,34,R,ugm-3 (GRAV EQ),301,R,ugm-3,107,R,ugm-3,567,R,ugm-3,2,R,ugm-3,35,R,ugm-3
07-01-2004,09:00,0.5,R,mgm-3,36,R,ugm-3 (GRAV EQ),236,R,ugm-3,94,R,ugm-3,455,R,ugm-3,2,R,ugm-3,35,R,ugm-3
07-01-2004,10:00,0.5,R,mgm-3,44,R,ugm-3 (GRAV EQ),235,R,ugm-3,92,R,ugm-3,451,R,ugm-3,2,R,ugm-3,45,R,ugm-3
07-01-2004,11:00,0.3,R,mgm-3,40,R,ugm-3 (GRAV EQ),229,R,ugm-3,90,R,ugm-3,439,R,ugm-3,6,R,ugm-3,40,R,ugm-3
07-01-2004,12:00,0.2,R,mgm-3,31,R,ugm-3 (GRAV EQ),189,R,ugm-3,88,R,ugm-3,376,R,ugm-3,8,R,ugm-3,32,R,ugm-3
07-01-2004,13:00,0.2,R,mgm-3,30,R,ugm-3 (GRAV EQ),194,R,ugm-3,92,R,ugm-3,388,R,ugm-3,10,R,ugm-3,35,R,ugm-3
07-01-2004,14:00,0.3,R,mgm-3,36,R,ugm-3 (GRAV EQ),199,R,ugm-3,97,R,ugm-3,401,R,ugm-3,14,R,ugm-3,35,R,ugm-3
07-01-2004,15:00,0.3,R,mgm-3,39,R,ugm-3 (GRAV EQ),201,R,ugm-3,103,R,ugm-3,411,R,ugm-3,10,R,ugm-3,32,R,ugm-3
07-01-2004,16:00,0.3,R,mgm-3,35,R,ugm-3 (GRAV EQ),194,R,ugm-3,101,R,ugm-3,397,R,ugm-3,14,R,ugm-3,37,R,ugm-3
07-01-2004,17:00,0.5,R,mgm-3,39,R,ugm-3 (GRAV EQ),180,R,ugm-3,99,R,ugm-3,374,R,ugm-3,12,R,ugm-3,35,R,ugm-3
07-01-2004,18:00,0.6,R,mgm-3,36,R,ugm-3 (GRAV EQ),159,R,ugm-3,101,R,ugm-3,344,R,ugm-3,10,R,ugm-3,37,R,ugm-3
07-01-2004,19:00,0.5,R,mgm-3,38,R,ugm-3 (GRAV EQ),128,R,ugm-3,90,R,ugm-3,285,R,ugm-3,14,R,ugm-3,37,R,ugm-3
07-01-2004,20:00,0.3,R,mgm-3,31,R,ugm-3 (GRAV EQ),78,R,ugm-3,71,R,ugm-3,189,R,ugm-3,20,R,ugm-3,29,R,ugm-3
07-01-2004,21:00,0.2,R,mgm-3,29,R,ugm-3 (GRAV EQ),51,R,ugm-3,53,R,ugm-3,132,R,ugm-3,28,R,ugm-3,29,R,ugm-3
07-01-2004,22:00,0.2,R,mgm-3,23,R,ugm-3 (GRAV EQ),36,R,ugm-3,48,R,ugm-3,103,R,ugm-3,28,R,ugm-3,29,R,ugm-3
07-01-2004,23:00,0.2,R,mgm-3,23,R,ugm-3 (GRAV EQ),39,R,ugm-3,44,R,ugm-3,103,R,ugm-3,26,R,ugm-3,29,R,ugm-3
07-01-2004,24:00,0.2,R,mgm-3,14,R,ugm-3 (GRAV EQ),33,R,ugm-3,40,R,ugm-3,90,R,ugm-3,28,R,ugm-3,27,R,ugm-3
08-01-2004,01:00,0.2,R,mgm-3,13,R,ugm-3 (GRAV EQ),31,R,ugm-3,34,R,ugm-3,82,R,ugm-3,24,R,ugm-3,21,R,ugm-3
08-01-2004,02:00,0.2,R,mgm-3,13,R,ugm-3 (GRAV EQ),36,R,ugm-3,40,R,ugm-3,96,R,ugm-3,22,R,ugm-3,27,R,ugm-3
08-01-2004,03:00,0.2,R,mgm-3,8,R,ugm-3 (GRAV EQ),36,R,ugm-3,34,R,ugm-3,90,R,ugm-3,26,R,ugm-3,24,R,ugm-3
08-01-2004,04:00,0.2,R,mgm-3,12,R,ugm-3 (GRAV EQ),33,R,ugm-3,32,R,ugm-3,82,R,ugm-3,30,R,ugm-3,24,R,ugm-3
08-01-2004,05:00,0.2,R,mgm-3,10,R,ugm-3 (GRAV EQ),41,R,ugm-3,38,R,ugm-3,101,R,ugm-3,32,R,ugm-3,21,R,ugm-3
08-01-2004,06:00,0.2,R,mgm-3,14,R,ugm-3 (GRAV EQ),84,R,ugm-3,59,R,ugm-3,187,R,ugm-3,28,R,ugm-3,27,R,ugm-3
08-01-2004,07:00,0.2,R,mgm-3,18,R,ugm-3 (GRAV EQ),188,R,ugm-3,86,R,ugm-3,372,R,ugm-3,18,R,ugm-3,37,R,ugm-3
08-01-2004,08:00,0.3,R,mgm-3,44,R,ugm-3 (GRAV EQ),171,R,ugm-3,90,R,ugm-3,351,R,ugm-3,14,R,ugm-3,29,R,ugm-3
08-01-2004,09:00,0.3,R,mgm-3,21,R,ugm-3 (GRAV EQ),126,R,ugm-3,80,R,ugm-3,273,R,ugm-3,16,R,ugm-3,27,R,ugm-3
08-01-2004,10:00,0.3,R,mgm-3,21,R,ugm-3 (GRAV EQ),129,R,ugm-3,73,R,ugm-3,269,R,ugm-3,16,R,ugm-3,29,R,ugm-3
08-01-2004,11:00,,,,,,,,,,,,,,,,,,,,,
08-01-2004,12:00,,,,,,,,,,,,,,,,,,,,,
08-01-2004,13:00,0.2,R,mgm-3,,,,115,R,ugm-3,88,R,ugm-3,264,R,ugm-3,20,R,ugm-3,27,R,ugm-3
08-01-2004,14:00,0.2,R,mgm-3,,,,135,R,ugm-3,94,R,ugm-3,300,R,ugm-3,14,R,ugm-3,32,R,ugm-3
08-01-2004,15:00,0.3,R,mgm-3,,,,199,R,ugm-3,107,R,ugm-3,411,R,ugm-3,8,R,ugm-3,32,R,ugm-3
08-01-2004,16:00,0.5,R,mgm-3,,,,226,R,ugm-3,117,R,ugm-3,462,R,ugm-3,6,R,ugm-3,40,R,ugm-3
08-01-2004,17:00,0.7,R,mgm-3,,,,229,R,ugm-3,118,R,ugm-3,468,R,ugm-3,4,R,ugm-3,40,R,ugm-3
08-01-2004,18:00,0.6,R,mgm-3,,,,174,R,ugm-3,109,R,ugm-3,374,R,ugm-3,4,R,ugm-3,37,R,ugm-3
08-01-2004,19:00,0.5,R,mgm-3,,,,149,R,ugm-3,101,R,ugm-3,329,R,ugm-3,6,R,ugm-3,29,R,ugm-3
08-01-2004,20:00,0.5,R,mgm-3,,,,124,R,ugm-3,88,R,ugm-3,277,R,ugm-3,8,R,ugm-3,29,R,ugm-3
08-01-2004,21:00,0.5,R,mgm-3,,,,115,R,ugm-3,82,R,ugm-3,258,R,ugm-3,8,R,ugm-3,29,R,ugm-3
08-01-2004,22:00,0.5,R,mgm-3,,,,105,R,ugm-3,76,R,ugm-3,237,R,ugm-3,8,R,ugm-3,29,R,ugm-3
08-01-2004,23:00,0.3,R,mgm-3,,,,85,R,ugm-3,69,R,ugm-3,199,R,ugm-3,10,R,ugm-3,27,R,ugm-3
08-01-2004,24:00,0.3,R,mgm-3,,,,70,R,ugm-3,65,R,ugm-3,172,R,ugm-3,14,R,ugm-3,24,R,ugm-3
09-01-2004,01:00,0.2,R,mgm-3,,,,53,R,ugm-3,55,R,ugm-3,136,R,ugm-3,20,R,ugm-3,24,R,ugm-3
09-01-2004,02:00,0.2,R,mgm-3,,,,45,R,ugm-3,57,R,ugm-3,126,R,ugm-3,16,R,ugm-3,21,R,ugm-3
09-01-2004,03:00,0.2,R,mgm-3,,,,34,R,ugm-3,48,R,ugm-3,99,R,ugm-3,22,R,ugm-3,19,R,ugm-3
09-01-2004,04:00,0.2,R,mgm-3,,,,50,R,ugm-3,53,R,ugm-3,130,R,ugm-3,16,R,ugm-3,21,R,ugm-3
09-01-2004,05:00,0.2,R,mgm-3,,,,68,R,ugm-3,61,R,ugm-3,164,R,ugm-3,12,R,ugm-3,19,R,ugm-3
09-01-2004,06:00,0.2,R,mgm-3,,,,164,R,ugm-3,84,R,ugm-3,334,R,ugm-3,4,R,ugm-3,32,R,ugm-3
09-01-2004,07:00,0.5,R,mgm-3,,,,290,R,ugm-3,107,R,ugm-3,550,R,ugm-3,0,R,ugm-3,45,R,ugm-3
09-01-2004,08:00,0.7,R,mgm-3,,,,336,R,ugm-3,132,R,ugm-3,646,R,ugm-3,0,R,ugm-3,51,R,ugm-3
09-01-2004,09:00,0.8,R,mgm-3,,,,348,R,ugm-3,143,R,ugm-3,674,R,ugm-3,0,R,ugm-3,64,R,ugm-3
09-01-2004,10:00,0.3,R,mgm-3,,,,226,R,ugm-3,117,R,ugm-3,462,R,ugm-3,6,R,ugm-3,40,R,ugm-3
09-01-2004,11:00,0.2,R,mgm-3,,,,138,R,ugm-3,101,R,ugm-3,311,R,ugm-3,12,R,ugm-3,24,R,ugm-3
09-01-2004,12:00,0.2,R,mgm-3,,,,135,R,ugm-3,99,R,ugm-3,306,R,ugm-3,14,R,ugm-3,27,R,ugm-3
09-01-2004,13:00,0.2,R,mgm-3,,,,98,R,ugm-3,84,R,ugm-3,233,R,ugm-3,28,R,ugm-3,27,R,ugm-3
09-01-2004,14:00,0.2,R,mgm-3,,,,71,R,ugm-3,76,R,ugm-3,185,R,ugm-3,34,R,ugm-3,19,R,ugm-3
09-01-2004,15:00,0.2,R,mgm-3,,,,53,R,ugm-3,67,R,ugm-3,147,R,ugm-3,38,R,ugm-3,24,R,ugm-3
09-01-2004,16:00,0.2,R,mgm-3,,,,50,R,ugm-3,65,R,ugm-3,141,R,ugm-3,36,R,ugm-3,21,R,ugm-3
09-01-2004,17:00,0.3,R,mgm-3,,,,44,R,ugm-3,67,R,ugm-3,134,R,ugm-3,32,R,ugm-3,19,R,ugm-3
09-01-2004,18:00,0.3,R,mgm-3,,,,48,R,ugm-3,74,R,ugm-3,147,R,ugm-3,26,R,ugm-3,19,R,ugm-3
09-01-2004,19:00,0.5,R,mgm-3,,,,63,R,ugm-3,80,R,ugm-3,176,R,ugm-3,16,R,ugm-3,21,R,ugm-3
09-01-2004,20:00,0.6,R,mgm-3,,,,140,R,ugm-3,97,R,ugm-3,311,R,ugm-3,2,R,ugm-3,29,R,ugm-3
09-01-2004,21:00,0.6,R,mgm-3,,,,145,R,ugm-3,96,R,ugm-3,317,R,ugm-3,0,R,ugm-3,27,R,ugm-3
09-01-2004,22:00,0.7,R,mgm-3,,,,176,R,ugm-3,101,R,ugm-3,371,R,ugm-3,0,R,ugm-3,35,R,ugm-3
09-01-2004,23:00,0.8,R,mgm-3,,,,170,R,ugm-3,99,R,ugm-3,359,R,ugm-3,0,R,ugm-3,32,R,ugm-3
09-01-2004,24:00,0.8,R,mgm-3,,,,194,R,ugm-3,97,R,ugm-3,393,R,ugm-3,0,R,ugm-3,37,R,ugm-3
10-01-2004,01:00,0.7,R,mgm-3,,,,149,R,ugm-3,82,R,ugm-3,309,R,ugm-3,0,R,ugm-3,29,R,ugm-3
10-01-2004,02:00,0.3,R,mgm-3,,,,150,R,ugm-3,82,R,ugm-3,311,R,ugm-3,0,R,ugm-3,19,R,ugm-3
10-01-2004,03:00,0.5,R,mgm-3,,,,146,R,ugm-3,78,R,ugm-3,302,R,ugm-3,0,R,ugm-3,27,R,ugm-3
10-01-2004,04:00,0.3,R,mgm-3,,,,118,R,ugm-3,65,R,ugm-3,244,R,ugm-3,2,R,ugm-3,29,R,ugm-3
10-01-2004,05:00,0.2,R,mgm-3,,,,63,R,ugm-3,53,R,ugm-3,149,R,ugm-3,14,R,ugm-3,19,R,ugm-3
10-01-2004,06:00,0.2,R,mgm-3,,,,58,R,ugm-3,55,R,ugm-3,143,R,ugm-3,16,R,ugm-3,21,R,ugm-3
10-01-2004,07:00,0.2,R,mgm-3,,,,75,R,ugm-3,63,R,ugm-3,178,R,ugm-3,12,R,ugm-3,24,R,ugm-3
10-01-2004,08:00,0.2,R,mgm-3,,,,123,R,ugm-3,74,R,ugm-3,262,R,ugm-3,6,R,ugm-3,27,R,ugm-3
10-01-2004,09:00,0.3,R,mgm-3,,,,108,R,ugm-3,71,R,ugm-3,235,R,ugm-3,8,R,ugm-3,24,R,ugm-3
10-01-2004,10:00,0.3,R,mgm-3,,,,95,R,ugm-3,63,R,ugm-3,208,R,ugm-3,8,R,ugm-3,24,R,ugm-3
10-01-2004,11:00,0.3,R,mgm-3,,,,94,R,ugm-3,67,R,ugm-3,210,R,ugm-3,10,R,ugm-3,21,R,ugm-3
10-01-2004,12:00,0.5,R,mgm-3,,,,98,R,ugm-3,69,R,ugm-3,218,R,ugm-3,10,R,ugm-3,24,R,ugm-3
10-01-2004,13:00,0.5,R,mgm-3,,,,86,R,ugm-3,65,R,ugm-3,197,R,ugm-3,12,R,ugm-3,16,R,ugm-3
10-01-2004,14:00,0.5,R,mgm-3,,,,85,R,ugm-3,65,R,ugm-3,195,R,ugm-3,10,R,ugm-3,29,R,ugm-3
10-01-2004,15:00,0.6,R,mgm-3,,,,94,R,ugm-3,71,R,ugm-3,214,R,ugm-3,10,R,ugm-3,27,R,ugm-3
10-01-2004,16:00,0.3,R,mgm-3,,,,54,R,ugm-3,63,R,ugm-3,145,R,ugm-3,18,R,ugm-3,21,R,ugm-3
10-01-2004,17:00,0.3,R,mgm-3,,,,48,R,ugm-3,59,R,ugm-3,132,R,ugm-3,18,R,ugm-3,27,R,ugm-3